Year,Month,Day,Hour,Minute,Value (Times are PST for windspeed in km/hr)
2012,12,03,00,00,1.50
2012,12,03,00,01,0.30
2012,12,03,00,02,0.20
2012,12,03,00,03,0.20
2012,12,03,00,04,0.20
2012,12,03,00,05,0.00
2012,12,03,00,06,0.10
2012,12,03,00,07,1.30
2012,12,03,00,08,3.00
2012,12,03,00,09,4.80
2012,12,03,00,10,1.90
2012,12,03,00,11,1.80
2012,12,03,00,12,2.90
2012,12,03,00,13,3.40
2012,12,03,00,14,3.90
2012,12,03,00,15,4.30
2012,12,03,00,16,5.30
2012,12,03,00,17,4.20
2012,12,03,00,18,4.40
2012,12,03,00,19,0.20
2012,12,03,00,20,0.00
2012,12,03,00,21,0.10
2012,12,03,00,22,0.90
2012,12,03,00,23,0.80
2012,12,03,00,24,4.10
2012,12,03,00,25,1.70
2012,12,03,00,26,2.30
2012,12,03,00,27,0.80
2012,12,03,00,28,0.40
2012,12,03,00,29,3.50
2012,12,03,00,30,2.70
2012,12,03,00,31,1.40
2012,12,03,00,32,0.60
2012,12,03,00,33,0.20
2012,12,03,00,34,1.50
2012,12,03,00,35,3.10
2012,12,03,00,36,4.20
2012,12,03,00,37,3.40
2012,12,03,00,38,4.70
2012,12,03,00,39,2.00
2012,12,03,00,40,0.50
2012,12,03,00,41,3.40
2012,12,03,00,42,0.50
2012,12,03,00,43,0.10
2012,12,03,00,44,2.60
2012,12,03,00,45,0.60
2012,12,03,00,46,1.40
2012,12,03,00,47,1.00
2012,12,03,00,48,0.00
2012,12,03,00,49,0.20
2012,12,03,00,50,3.50
2012,12,03,00,51,3.90
2012,12,03,00,52,1.20
2012,12,03,00,53,0.80
2012,12,03,00,54,1.20
2012,12,03,00,55,0.50
2012,12,03,00,56,0.80
2012,12,03,00,57,0.00
2012,12,03,00,58,0.10
2012,12,03,00,59,1.30
2012,12,03,01,00,4.30
2012,12,03,01,01,5.30
2012,12,03,01,02,3.20
2012,12,03,01,03,3.70
2012,12,03,01,04,2.70
2012,12,03,01,05,3.60
2012,12,03,01,06,5.70
2012,12,03,01,07,7.70
2012,12,03,01,08,7.10
2012,12,03,01,09,3.20
2012,12,03,01,10,1.20
2012,12,03,01,11,6.50
2012,12,03,01,12,2.70
2012,12,03,01,13,1.10
2012,12,03,01,14,4.60
2012,12,03,01,15,0.70
2012,12,03,01,16,3.80
2012,12,03,01,17,4.60
2012,12,03,01,18,2.70
2012,12,03,01,19,5.20
2012,12,03,01,20,1.40
2012,12,03,01,21,2.80
2012,12,03,01,22,5.00
2012,12,03,01,23,5.70
2012,12,03,01,24,2.20
2012,12,03,01,25,5.20
2012,12,03,01,26,4.00
2012,12,03,01,27,2.60
2012,12,03,01,28,1.00
2012,12,03,01,29,1.40
2012,12,03,01,30,0.00
2012,12,03,01,31,1.20
2012,12,03,01,32,1.00
2012,12,03,01,33,3.40
2012,12,03,01,34,0.00
2012,12,03,01,35,0.70
2012,12,03,01,36,4.20
2012,12,03,01,37,5.50
2012,12,03,01,38,6.20
2012,12,03,01,39,4.10
2012,12,03,01,40,4.10
2012,12,03,01,41,1.10
2012,12,03,01,42,0.20
2012,12,03,01,43,2.70
2012,12,03,01,44,2.20
2012,12,03,01,45,0.30
2012,12,03,01,46,1.30
2012,12,03,01,47,1.00
2012,12,03,01,48,1.90
2012,12,03,01,49,0.00
2012,12,03,01,50,0.10
2012,12,03,01,51,0.00
2012,12,03,01,52,0.00
2012,12,03,01,53,0.00
2012,12,03,01,54,0.00
2012,12,03,01,55,0.10
2012,12,03,01,56,0.50
2012,12,03,01,57,0.00
2012,12,03,01,58,0.40
2012,12,03,01,59,0.00
2012,12,03,02,00,0.00
2012,12,03,02,01,0.00
2012,12,03,02,02,0.00
2012,12,03,02,03,0.40
2012,12,03,02,04,2.10
2012,12,03,02,05,3.00
2012,12,03,02,06,2.40
2012,12,03,02,07,1.00
2012,12,03,02,08,0.40
2012,12,03,02,09,3.40
2012,12,03,02,10,2.50
2012,12,03,02,11,2.30
2012,12,03,02,12,2.10
2012,12,03,02,13,0.20
2012,12,03,02,14,2.50
2012,12,03,02,15,0.20
2012,12,03,02,16,0.00
2012,12,03,02,17,0.10
2012,12,03,02,18,0.90
2012,12,03,02,19,3.50
2012,12,03,02,20,2.00
2012,12,03,02,21,1.00
2012,12,03,02,22,0.00
2012,12,03,02,23,1.20
2012,12,03,02,24,1.40
2012,12,03,02,25,3.10
2012,12,03,02,26,3.00
2012,12,03,02,27,3.10
2012,12,03,02,28,2.30
2012,12,03,02,29,0.20
2012,12,03,02,30,4.90
2012,12,03,02,31,2.60
2012,12,03,02,32,6.30
2012,12,03,02,33,3.90
2012,12,03,02,34,9.60
2012,12,03,02,35,6.60
2012,12,03,02,36,6.90
2012,12,03,02,37,1.60
2012,12,03,02,38,5.00
2012,12,03,02,39,3.00
2012,12,03,02,40,4.80
2012,12,03,02,41,4.00
2012,12,03,02,42,9.40
2012,12,03,02,43,8.50
2012,12,03,02,44,3.40
2012,12,03,02,45,3.50
2012,12,03,02,46,0.80
2012,12,03,02,47,2.20
2012,12,03,02,48,5.40
2012,12,03,02,49,2.30
2012,12,03,02,50,4.70
2012,12,03,02,51,7.50
2012,12,03,02,52,2.80
2012,12,03,02,53,0.10
2012,12,03,02,54,0.10
2012,12,03,02,55,0.80
2012,12,03,02,56,0.60
2012,12,03,02,57,0.00
2012,12,03,02,58,1.30
2012,12,03,02,59,0.60
2012,12,03,03,00,0.40
2012,12,03,03,01,1.80
2012,12,03,03,02,0.00
2012,12,03,03,03,0.60
2012,12,03,03,04,0.40
2012,12,03,03,05,0.80
2012,12,03,03,06,3.60
2012,12,03,03,07,3.70
2012,12,03,03,08,5.80
2012,12,03,03,09,5.60
2012,12,03,03,10,5.90
2012,12,03,03,11,5.60
2012,12,03,03,12,4.60
2012,12,03,03,13,5.10
2012,12,03,03,14,5.00
2012,12,03,03,15,4.90
2012,12,03,03,16,3.60
2012,12,03,03,17,5.70
2012,12,03,03,18,3.10
2012,12,03,03,19,3.50
2012,12,03,03,20,6.50
2012,12,03,03,21,3.50
2012,12,03,03,22,1.40
2012,12,03,03,23,0.30
2012,12,03,03,24,2.90
2012,12,03,03,25,3.40
2012,12,03,03,26,2.30
2012,12,03,03,27,5.20
2012,12,03,03,28,4.70
2012,12,03,03,29,1.80
2012,12,03,03,30,1.00
2012,12,03,03,31,0.10
2012,12,03,03,32,0.70
2012,12,03,03,33,0.50
2012,12,03,03,34,1.10
2012,12,03,03,35,2.50
2012,12,03,03,36,6.70
2012,12,03,03,37,2.50
2012,12,03,03,38,4.70
2012,12,03,03,39,4.70
2012,12,03,03,40,5.10
2012,12,03,03,41,4.80
2012,12,03,03,42,5.70
2012,12,03,03,43,2.90
2012,12,03,03,44,3.40
2012,12,03,03,45,4.00
2012,12,03,03,46,5.60
2012,12,03,03,47,5.90
2012,12,03,03,48,6.80
2012,12,03,03,49,2.30
2012,12,03,03,50,5.10
2012,12,03,03,51,3.60
2012,12,03,03,52,6.10
2012,12,03,03,53,2.80
2012,12,03,03,54,3.00
2012,12,03,03,55,4.50
2012,12,03,03,56,3.30
2012,12,03,03,57,4.30
2012,12,03,03,58,3.00
2012,12,03,03,59,2.90
2012,12,03,04,00,3.20
2012,12,03,04,01,2.90
2012,12,03,04,02,1.40
2012,12,03,04,03,0.60
2012,12,03,04,04,0.40
2012,12,03,04,05,1.50
2012,12,03,04,06,0.00
2012,12,03,04,07,0.00
2012,12,03,04,08,0.10
2012,12,03,04,09,1.20
2012,12,03,04,10,2.30
2012,12,03,04,11,0.70
2012,12,03,04,12,4.60
2012,12,03,04,13,7.30
2012,12,03,04,14,2.70
2012,12,03,04,15,1.40
2012,12,03,04,16,3.60
2012,12,03,04,17,0.50
2012,12,03,04,18,4.00
2012,12,03,04,19,1.60
2012,12,03,04,20,0.00
2012,12,03,04,21,0.00
2012,12,03,04,22,1.40
2012,12,03,04,23,1.20
2012,12,03,04,24,0.00
2012,12,03,04,25,0.80
2012,12,03,04,26,7.70
2012,12,03,04,27,6.40
2012,12,03,04,28,2.70
2012,12,03,04,29,3.20
2012,12,03,04,30,5.20
2012,12,03,04,31,1.40
2012,12,03,04,32,1.10
2012,12,03,04,33,0.10
2012,12,03,04,34,0.00
2012,12,03,04,35,0.20
2012,12,03,04,36,0.30
2012,12,03,04,37,0.00
2012,12,03,04,38,0.00
2012,12,03,04,39,0.00
2012,12,03,04,40,0.00
2012,12,03,04,41,0.00
2012,12,03,04,42,0.00
2012,12,03,04,43,0.00
2012,12,03,04,44,0.30
2012,12,03,04,45,2.60
2012,12,03,04,46,2.80
2012,12,03,04,47,3.50
2012,12,03,04,48,0.60
2012,12,03,04,49,0.00
2012,12,03,04,50,0.00
2012,12,03,04,51,0.00
2012,12,03,04,52,0.00
2012,12,03,04,53,0.10
2012,12,03,04,54,1.40
2012,12,03,04,55,0.60
2012,12,03,04,56,1.90
2012,12,03,04,57,5.40
2012,12,03,04,58,1.80
2012,12,03,04,59,0.00
2012,12,03,05,00,0.00
2012,12,03,05,01,0.00
2012,12,03,05,02,2.80
2012,12,03,05,03,2.20
2012,12,03,05,04,0.10
2012,12,03,05,05,0.10
2012,12,03,05,06,0.00
2012,12,03,05,07,0.00
2012,12,03,05,08,0.00
2012,12,03,05,09,0.00
2012,12,03,05,10,0.00
2012,12,03,05,11,0.00
2012,12,03,05,12,0.00
2012,12,03,05,13,0.20
2012,12,03,05,14,0.00
2012,12,03,05,15,0.10
2012,12,03,05,16,0.70
2012,12,03,05,17,0.40
2012,12,03,05,18,0.00
2012,12,03,05,19,0.70
2012,12,03,05,20,1.10
2012,12,03,05,21,0.00
2012,12,03,05,22,0.10
2012,12,03,05,23,0.00
2012,12,03,05,24,0.00
2012,12,03,05,25,0.00
2012,12,03,05,26,0.10
2012,12,03,05,27,0.20
2012,12,03,05,28,0.30
2012,12,03,05,29,1.40
2012,12,03,05,30,0.20
2012,12,03,05,31,0.10
2012,12,03,05,32,0.00
2012,12,03,05,33,0.60
2012,12,03,05,34,0.90
2012,12,03,05,35,0.10
2012,12,03,05,36,3.60
2012,12,03,05,37,3.90
2012,12,03,05,38,1.40
2012,12,03,05,39,3.00
2012,12,03,05,40,3.30
2012,12,03,05,41,2.90
2012,12,03,05,42,2.20
2012,12,03,05,43,4.90
2012,12,03,05,44,2.80
2012,12,03,05,45,1.50
2012,12,03,05,46,0.10
2012,12,03,05,47,0.10
2012,12,03,05,48,0.20
2012,12,03,05,49,0.00
2012,12,03,05,50,0.00
2012,12,03,05,51,0.00
2012,12,03,05,52,0.60
2012,12,03,05,53,0.00
2012,12,03,05,54,0.00
2012,12,03,05,55,0.50
2012,12,03,05,56,2.70
2012,12,03,05,57,2.30
2012,12,03,05,58,0.00
2012,12,03,05,59,2.10
2012,12,03,06,00,0.50
2012,12,03,06,01,2.10
2012,12,03,06,02,0.60
2012,12,03,06,03,0.10
2012,12,03,06,04,1.40
2012,12,03,06,05,1.60
2012,12,03,06,06,1.80
2012,12,03,06,07,3.60
2012,12,03,06,08,2.10
2012,12,03,06,09,1.30
2012,12,03,06,10,1.20
2012,12,03,06,11,2.30
2012,12,03,06,12,2.90
2012,12,03,06,13,4.70
2012,12,03,06,14,5.50
2012,12,03,06,15,4.50
2012,12,03,06,16,1.50
2012,12,03,06,17,0.10
2012,12,03,06,18,1.00
2012,12,03,06,19,0.00
2012,12,03,06,20,0.20
2012,12,03,06,21,1.30
2012,12,03,06,22,1.60
2012,12,03,06,23,1.60
2012,12,03,06,24,1.60
2012,12,03,06,25,1.60
2012,12,03,06,26,0.70
2012,12,03,06,27,0.00
2012,12,03,06,28,0.00
2012,12,03,06,29,0.00
2012,12,03,06,30,0.00
2012,12,03,06,31,0.00
2012,12,03,06,32,0.00
2012,12,03,06,33,0.00
2012,12,03,06,34,0.00
2012,12,03,06,35,0.00
2012,12,03,06,36,0.10
2012,12,03,06,37,0.00
2012,12,03,06,38,1.90
2012,12,03,06,39,2.80
2012,12,03,06,40,0.80
2012,12,03,06,41,1.80
2012,12,03,06,42,2.10
2012,12,03,06,43,5.10
2012,12,03,06,44,2.10
2012,12,03,06,45,0.20
2012,12,03,06,46,1.10
2012,12,03,06,47,3.10
2012,12,03,06,48,0.50
2012,12,03,06,49,0.00
2012,12,03,06,50,0.10
2012,12,03,06,51,0.00
2012,12,03,06,52,0.40
2012,12,03,06,53,0.30
2012,12,03,06,54,0.20
2012,12,03,06,55,0.10
2012,12,03,06,56,1.20
2012,12,03,06,57,1.10
2012,12,03,06,58,0.10
2012,12,03,06,59,0.00
2012,12,03,07,00,0.00
2012,12,03,07,01,0.00
2012,12,03,07,02,0.00
2012,12,03,07,03,0.00
2012,12,03,07,04,0.00
2012,12,03,07,05,0.00
2012,12,03,07,06,0.10
2012,12,03,07,07,0.00
2012,12,03,07,08,0.00
2012,12,03,07,09,0.00
2012,12,03,07,10,0.30
2012,12,03,07,11,0.00
2012,12,03,07,12,0.10
2012,12,03,07,13,0.80
2012,12,03,07,14,1.20
2012,12,03,07,15,0.60
2012,12,03,07,16,1.00
2012,12,03,07,17,1.80
2012,12,03,07,18,0.00
2012,12,03,07,19,0.00
2012,12,03,07,20,0.40
2012,12,03,07,21,0.80
2012,12,03,07,22,2.30
2012,12,03,07,23,3.90
2012,12,03,07,24,0.90
2012,12,03,07,25,1.90
2012,12,03,07,26,4.20
2012,12,03,07,27,1.90
2012,12,03,07,28,2.20
2012,12,03,07,29,4.10
2012,12,03,07,30,1.90
2012,12,03,07,31,0.30
2012,12,03,07,32,0.80
2012,12,03,07,33,1.60
2012,12,03,07,34,2.00
2012,12,03,07,35,3.90
2012,12,03,07,36,2.70
2012,12,03,07,37,0.20
2012,12,03,07,38,0.80
2012,12,03,07,39,0.10
2012,12,03,07,40,0.00
2012,12,03,07,41,0.60
2012,12,03,07,42,0.10
2012,12,03,07,43,0.10
2012,12,03,07,44,0.30
2012,12,03,07,45,3.40
2012,12,03,07,46,1.80
2012,12,03,07,47,2.50
2012,12,03,07,48,0.10
2012,12,03,07,49,0.00
2012,12,03,07,50,0.00
2012,12,03,07,51,0.00
2012,12,03,07,52,0.00
2012,12,03,07,53,0.00
2012,12,03,07,54,0.00
2012,12,03,07,55,0.00
2012,12,03,07,56,0.00
2012,12,03,07,57,0.00
2012,12,03,07,58,1.20
2012,12,03,07,59,0.20
2012,12,03,08,00,0.00
2012,12,03,08,01,0.00
2012,12,03,08,02,0.00
2012,12,03,08,03,0.00
2012,12,03,08,04,0.00
2012,12,03,08,05,0.10
2012,12,03,08,06,0.60
2012,12,03,08,07,1.50
2012,12,03,08,08,1.90
2012,12,03,08,09,0.00
2012,12,03,08,10,0.00
2012,12,03,08,11,0.00
2012,12,03,08,12,0.20
2012,12,03,08,13,1.60
2012,12,03,08,14,3.10
2012,12,03,08,15,5.00
2012,12,03,08,16,4.60
2012,12,03,08,17,2.90
2012,12,03,08,18,1.60
2012,12,03,08,19,0.00
2012,12,03,08,20,0.30
2012,12,03,08,21,0.80
2012,12,03,08,22,2.10
2012,12,03,08,23,0.10
2012,12,03,08,24,0.20
2012,12,03,08,25,1.10
2012,12,03,08,26,0.00
2012,12,03,08,27,0.00
2012,12,03,08,28,0.00
2012,12,03,08,29,0.00
2012,12,03,08,30,0.00
2012,12,03,08,31,0.00
2012,12,03,08,32,0.00
2012,12,03,08,33,0.00
2012,12,03,08,34,0.00
2012,12,03,08,35,0.00
2012,12,03,08,36,0.70
2012,12,03,08,37,0.00
2012,12,03,08,38,0.00
2012,12,03,08,39,0.00
2012,12,03,08,40,0.00
2012,12,03,08,41,0.20
2012,12,03,08,42,0.20
2012,12,03,08,43,0.10
2012,12,03,08,44,0.20
2012,12,03,08,45,0.10
2012,12,03,08,46,0.00
2012,12,03,08,47,0.10
2012,12,03,08,48,3.10
2012,12,03,08,49,0.70
2012,12,03,08,50,0.00
2012,12,03,08,51,0.10
2012,12,03,08,52,0.00
2012,12,03,08,53,0.70
2012,12,03,08,54,3.90
2012,12,03,08,55,1.50
2012,12,03,08,56,0.00
2012,12,03,08,57,0.00
2012,12,03,08,58,0.00
2012,12,03,08,59,1.80
2012,12,03,09,00,1.00
2012,12,03,09,01,0.80
2012,12,03,09,02,0.00
2012,12,03,09,03,0.00
2012,12,03,09,04,0.10
2012,12,03,09,05,0.00
2012,12,03,09,06,1.30
2012,12,03,09,07,0.70
2012,12,03,09,08,2.10
2012,12,03,09,09,0.60
2012,12,03,09,10,3.80
2012,12,03,09,11,1.50
2012,12,03,09,12,1.00
2012,12,03,09,13,0.80
2012,12,03,09,14,0.10
2012,12,03,09,15,0.10
2012,12,03,09,16,0.50
2012,12,03,09,17,0.00
2012,12,03,09,18,0.00
2012,12,03,09,19,0.70
2012,12,03,09,20,0.00
2012,12,03,09,21,0.00
2012,12,03,09,22,0.20
2012,12,03,09,23,0.00
2012,12,03,09,24,0.10
2012,12,03,09,25,0.40
2012,12,03,09,26,0.00
2012,12,03,09,27,0.00
2012,12,03,09,28,0.00
2012,12,03,09,29,0.00
2012,12,03,09,30,0.20
2012,12,03,09,31,0.00
2012,12,03,09,32,0.30
2012,12,03,09,33,0.50
2012,12,03,09,34,0.60
2012,12,03,09,35,0.60
2012,12,03,09,36,2.00
2012,12,03,09,37,1.40
2012,12,03,09,38,0.20
2012,12,03,09,39,1.90
2012,12,03,09,40,0.40
2012,12,03,09,41,0.00
2012,12,03,09,42,0.00
2012,12,03,09,43,0.10
2012,12,03,09,44,0.30
2012,12,03,09,45,0.70
2012,12,03,09,46,0.10
2012,12,03,09,47,0.00
2012,12,03,09,48,0.10
2012,12,03,09,49,0.10
2012,12,03,09,50,0.00
2012,12,03,09,51,0.70
2012,12,03,09,52,1.10
2012,12,03,09,53,0.00
2012,12,03,09,54,0.00
2012,12,03,09,55,0.00
2012,12,03,09,56,0.00
2012,12,03,09,57,0.00
2012,12,03,09,58,0.00
2012,12,03,09,59,0.00
2012,12,03,10,00,0.10
2012,12,03,10,01,0.00
2012,12,03,10,02,1.30
2012,12,03,10,03,0.60
2012,12,03,10,04,2.30
2012,12,03,10,05,2.20
2012,12,03,10,06,0.10
2012,12,03,10,07,0.60
2012,12,03,10,08,0.00
2012,12,03,10,09,0.10
2012,12,03,10,10,0.60
2012,12,03,10,11,0.80
2012,12,03,10,12,0.90
2012,12,03,10,13,0.80
2012,12,03,10,14,0.00
2012,12,03,10,15,1.80
2012,12,03,10,16,1.10
2012,12,03,10,17,0.40
2012,12,03,10,18,1.10
2012,12,03,10,19,1.70
2012,12,03,10,20,0.20
2012,12,03,10,21,1.60
2012,12,03,10,22,2.70
2012,12,03,10,23,4.00
2012,12,03,10,24,4.30
2012,12,03,10,25,1.50
2012,12,03,10,26,2.60
2012,12,03,10,27,0.30
2012,12,03,10,28,1.20
2012,12,03,10,29,1.40
2012,12,03,10,30,5.80
2012,12,03,10,31,3.10
2012,12,03,10,32,4.60
2012,12,03,10,33,5.50
2012,12,03,10,34,3.50
2012,12,03,10,35,4.70
2012,12,03,10,36,2.00
2012,12,03,10,37,2.70
2012,12,03,10,38,2.80
2012,12,03,10,39,5.10
2012,12,03,10,40,6.90
2012,12,03,10,41,4.80
2012,12,03,10,42,4.60
2012,12,03,10,43,3.40
2012,12,03,10,44,5.50
2012,12,03,10,45,7.40
2012,12,03,10,46,5.10
2012,12,03,10,47,1.60
2012,12,03,10,48,6.00
2012,12,03,10,49,5.10
2012,12,03,10,50,2.10
2012,12,03,10,51,2.80
2012,12,03,10,52,4.40
2012,12,03,10,53,4.30
2012,12,03,10,54,6.10
2012,12,03,10,55,3.40
2012,12,03,10,56,0.50
2012,12,03,10,57,1.20
2012,12,03,10,58,1.30
2012,12,03,10,59,5.10
2012,12,03,11,00,5.50
2012,12,03,11,01,4.60
2012,12,03,11,02,2.60
2012,12,03,11,03,0.90
2012,12,03,11,04,1.40
2012,12,03,11,05,0.10
2012,12,03,11,06,0.80
2012,12,03,11,07,0.40
2012,12,03,11,08,0.10
2012,12,03,11,09,0.20
2012,12,03,11,10,0.20
2012,12,03,11,11,0.10
2012,12,03,11,12,0.10
2012,12,03,11,13,1.90
2012,12,03,11,14,2.90
2012,12,03,11,15,0.70
2012,12,03,11,16,3.70
2012,12,03,11,17,2.90
2012,12,03,11,18,1.90
2012,12,03,11,19,0.60
2012,12,03,11,20,1.00
2012,12,03,11,21,1.00
2012,12,03,11,22,1.30
2012,12,03,11,23,1.50
2012,12,03,11,24,0.60
2012,12,03,11,25,0.80
2012,12,03,11,26,1.60
2012,12,03,11,27,0.60
2012,12,03,11,28,4.90
2012,12,03,11,29,5.50
2012,12,03,11,30,2.40
2012,12,03,11,31,5.10
2012,12,03,11,32,3.50
2012,12,03,11,33,4.10
2012,12,03,11,34,8.40
2012,12,03,11,35,8.50
2012,12,03,11,36,2.30
2012,12,03,11,37,2.80
2012,12,03,11,38,1.70
2012,12,03,11,39,3.40
2012,12,03,11,40,3.50
2012,12,03,11,41,3.80
2012,12,03,11,42,6.70
2012,12,03,11,43,5.00
2012,12,03,11,44,4.40
2012,12,03,11,45,2.50
2012,12,03,11,46,1.60
2012,12,03,11,47,0.40
2012,12,03,11,48,4.30
2012,12,03,11,49,4.80
2012,12,03,11,50,4.40
2012,12,03,11,51,5.30
2012,12,03,11,52,3.80
2012,12,03,11,53,2.40
2012,12,03,11,54,5.00
2012,12,03,11,55,4.40
2012,12,03,11,56,5.10
2012,12,03,11,57,2.50
2012,12,03,11,58,8.60
2012,12,03,11,59,3.40
2012,12,03,12,00,4.70
2012,12,03,12,01,0.30
2012,12,03,12,02,2.60
2012,12,03,12,03,6.00
2012,12,03,12,04,5.40
2012,12,03,12,05,7.80
2012,12,03,12,06,2.60
2012,12,03,12,07,5.60
2012,12,03,12,08,1.20
2012,12,03,12,09,2.20
2012,12,03,12,10,5.60
2012,12,03,12,11,0.00
2012,12,03,12,12,0.00
2012,12,03,12,13,0.10
2012,12,03,12,14,3.30
2012,12,03,12,15,6.20
2012,12,03,12,16,2.40
2012,12,03,12,17,3.20
2012,12,03,12,18,4.80
2012,12,03,12,19,4.40
2012,12,03,12,20,1.20
2012,12,03,12,21,2.20
2012,12,03,12,22,1.70
2012,12,03,12,23,4.60
2012,12,03,12,24,4.30
2012,12,03,12,25,1.10
2012,12,03,12,26,5.60
2012,12,03,12,27,0.60
2012,12,03,12,28,1.60
2012,12,03,12,29,3.50
2012,12,03,12,30,3.10
2012,12,03,12,31,5.10
2012,12,03,12,32,3.20
2012,12,03,12,33,3.80
2012,12,03,12,34,4.20
2012,12,03,12,35,2.70
2012,12,03,12,36,5.50
2012,12,03,12,37,4.30
2012,12,03,12,38,4.30
2012,12,03,12,39,3.90
2012,12,03,12,40,4.50
2012,12,03,12,41,5.00
2012,12,03,12,42,2.70
2012,12,03,12,43,3.00
2012,12,03,12,44,9.30
2012,12,03,12,45,5.60
2012,12,03,12,46,4.20
2012,12,03,12,47,0.60
2012,12,03,12,48,5.00
2012,12,03,12,49,2.20
2012,12,03,12,50,2.00
2012,12,03,12,51,1.00
2012,12,03,12,52,5.90
2012,12,03,12,53,3.90
2012,12,03,12,54,1.80
2012,12,03,12,55,1.60
2012,12,03,12,56,0.70
2012,12,03,12,57,0.50
2012,12,03,12,58,0.10
2012,12,03,12,59,4.80
2012,12,03,13,00,3.80
2012,12,03,13,01,4.60
2012,12,03,13,02,2.10
2012,12,03,13,03,2.00
2012,12,03,13,04,2.70
2012,12,03,13,05,2.60
2012,12,03,13,06,5.10
2012,12,03,13,07,5.00
2012,12,03,13,08,2.10
2012,12,03,13,09,1.20
2012,12,03,13,10,2.30
2012,12,03,13,11,5.50
2012,12,03,13,12,8.70
2012,12,03,13,13,12.50
2012,12,03,13,14,4.30
2012,12,03,13,15,11.30
2012,12,03,13,16,12.50
2012,12,03,13,17,4.50
2012,12,03,13,18,2.70
2012,12,03,13,19,11.30
2012,12,03,13,20,4.40
2012,12,03,13,21,7.70
2012,12,03,13,22,9.10
2012,12,03,13,23,12.90
2012,12,03,13,24,4.20
2012,12,03,13,25,5.60
2012,12,03,13,26,4.30
2012,12,03,13,27,2.20
2012,12,03,13,28,7.20
2012,12,03,13,29,8.90
2012,12,03,13,30,6.60
2012,12,03,13,31,1.30
2012,12,03,13,32,5.40
2012,12,03,13,33,8.70
2012,12,03,13,34,5.70
2012,12,03,13,35,5.40
2012,12,03,13,36,5.00
2012,12,03,13,37,8.50
2012,12,03,13,38,10.90
2012,12,03,13,39,6.20
2012,12,03,13,40,3.60
2012,12,03,13,41,8.50
2012,12,03,13,42,6.10
2012,12,03,13,43,4.70
2012,12,03,13,44,9.50
2012,12,03,13,45,4.60
2012,12,03,13,46,3.70
2012,12,03,13,47,1.40
2012,12,03,13,48,7.20
2012,12,03,13,49,3.50
2012,12,03,13,50,1.40
2012,12,03,13,51,9.60
2012,12,03,13,52,1.00
2012,12,03,13,53,2.00
2012,12,03,13,54,5.70
2012,12,03,13,55,4.40
2012,12,03,13,56,6.40
2012,12,03,13,57,6.00
2012,12,03,13,58,4.70
2012,12,03,13,59,9.60
2012,12,03,14,00,8.50
2012,12,03,14,01,2.90
2012,12,03,14,02,10.10
2012,12,03,14,03,4.20
2012,12,03,14,04,5.10
2012,12,03,14,05,5.30
2012,12,03,14,06,5.70
2012,12,03,14,07,10.60
2012,12,03,14,08,10.30
2012,12,03,14,09,11.60
2012,12,03,14,10,11.70
2012,12,03,14,11,6.90
2012,12,03,14,12,4.00
2012,12,03,14,13,4.60
2012,12,03,14,14,3.00
2012,12,03,14,15,12.00
2012,12,03,14,16,8.70
2012,12,03,14,17,8.00
2012,12,03,14,18,6.00
2012,12,03,14,19,5.00
2012,12,03,14,20,2.40
2012,12,03,14,21,8.00
2012,12,03,14,22,4.50
2012,12,03,14,23,2.80
2012,12,03,14,24,2.60
2012,12,03,14,25,4.50
2012,12,03,14,26,1.70
2012,12,03,14,27,0.20
2012,12,03,14,28,1.60
2012,12,03,14,29,5.50
2012,12,03,14,30,6.20
2012,12,03,14,31,4.20
2012,12,03,14,32,2.70
2012,12,03,14,33,3.70
2012,12,03,14,34,4.10
2012,12,03,14,35,7.50
2012,12,03,14,36,7.50
2012,12,03,14,37,3.50
2012,12,03,14,38,3.90
2012,12,03,14,39,0.90
2012,12,03,14,40,0.90
2012,12,03,14,41,5.40
2012,12,03,14,42,6.00
2012,12,03,14,43,7.00
2012,12,03,14,44,4.70
2012,12,03,14,45,9.70
2012,12,03,14,46,5.10
2012,12,03,14,47,6.00
2012,12,03,14,48,4.80
2012,12,03,14,49,5.50
2012,12,03,14,50,8.90
2012,12,03,14,51,7.90
2012,12,03,14,52,4.70
2012,12,03,14,53,6.70
2012,12,03,14,54,1.20
2012,12,03,14,55,0.40
2012,12,03,14,56,0.50
2012,12,03,14,57,3.40
2012,12,03,14,58,1.00
2012,12,03,14,59,5.30
2012,12,03,15,00,5.20
2012,12,03,15,01,4.10
2012,12,03,15,02,0.00
2012,12,03,15,03,4.80
2012,12,03,15,04,4.30
2012,12,03,15,05,2.70
2012,12,03,15,06,4.30
2012,12,03,15,07,1.60
2012,12,03,15,08,0.60
2012,12,03,15,09,6.40
2012,12,03,15,10,5.60
2012,12,03,15,11,4.30
2012,12,03,15,12,5.60
2012,12,03,15,13,2.90
2012,12,03,15,14,2.70
2012,12,03,15,15,2.70
2012,12,03,15,16,6.40
2012,12,03,15,17,2.10
2012,12,03,15,18,2.20
2012,12,03,15,19,2.50
2012,12,03,15,20,3.30
2012,12,03,15,21,7.10
2012,12,03,15,22,4.30
2012,12,03,15,23,6.30
2012,12,03,15,24,7.00
2012,12,03,15,25,4.30
2012,12,03,15,26,0.80
2012,12,03,15,27,2.70
2012,12,03,15,28,6.00
2012,12,03,15,29,5.10
2012,12,03,15,30,9.00
2012,12,03,15,31,1.50
2012,12,03,15,32,4.00
2012,12,03,15,33,2.80
2012,12,03,15,34,1.40
2012,12,03,15,35,4.90
2012,12,03,15,36,0.20
2012,12,03,15,37,5.80
2012,12,03,15,38,1.10
2012,12,03,15,39,4.40
2012,12,03,15,40,2.80
2012,12,03,15,41,4.70
2012,12,03,15,42,2.10
2012,12,03,15,43,3.40
2012,12,03,15,44,3.40
2012,12,03,15,45,5.30
2012,12,03,15,46,6.50
2012,12,03,15,47,6.10
2012,12,03,15,48,2.10
2012,12,03,15,49,5.10
2012,12,03,15,50,6.60
2012,12,03,15,51,5.70
2012,12,03,15,52,4.70
2012,12,03,15,53,7.30
2012,12,03,15,54,3.10
2012,12,03,15,55,5.10
2012,12,03,15,56,4.00
2012,12,03,15,57,3.90
2012,12,03,15,58,2.70
2012,12,03,15,59,2.40
2012,12,03,16,00,8.10
2012,12,03,16,01,2.00
2012,12,03,16,02,0.40
2012,12,03,16,03,0.00
2012,12,03,16,04,6.80
2012,12,03,16,05,1.80
2012,12,03,16,06,0.60
2012,12,03,16,07,8.00
2012,12,03,16,08,4.00
2012,12,03,16,09,1.10
2012,12,03,16,10,0.70
2012,12,03,16,11,4.00
2012,12,03,16,12,5.10
2012,12,03,16,13,2.30
2012,12,03,16,14,8.50
2012,12,03,16,15,5.30
2012,12,03,16,16,6.30
2012,12,03,16,17,1.40
2012,12,03,16,18,1.70
2012,12,03,16,19,5.60
2012,12,03,16,20,6.50
2012,12,03,16,21,5.70
2012,12,03,16,22,5.20
2012,12,03,16,23,3.20
2012,12,03,16,24,4.70
2012,12,03,16,25,6.40
2012,12,03,16,26,6.10
2012,12,03,16,27,4.30
2012,12,03,16,28,6.40
2012,12,03,16,29,11.00
2012,12,03,16,30,4.50
2012,12,03,16,31,6.00
2012,12,03,16,32,6.30
2012,12,03,16,33,2.20
2012,12,03,16,34,6.60
2012,12,03,16,35,9.30
2012,12,03,16,36,6.80
2012,12,03,16,37,9.60
2012,12,03,16,38,8.00
2012,12,03,16,39,9.90
2012,12,03,16,40,8.00
2012,12,03,16,41,8.60
2012,12,03,16,42,5.30
2012,12,03,16,43,5.60
2012,12,03,16,44,5.80
2012,12,03,16,45,6.20
2012,12,03,16,46,4.40
2012,12,03,16,47,6.00
2012,12,03,16,48,6.50
2012,12,03,16,49,6.40
2012,12,03,16,50,5.10
2012,12,03,16,51,1.90
2012,12,03,16,52,3.40
2012,12,03,16,53,3.30
2012,12,03,16,54,6.80
2012,12,03,16,55,2.40
2012,12,03,16,56,4.80
2012,12,03,16,57,8.20
2012,12,03,16,58,6.00
2012,12,03,16,59,8.40
2012,12,03,17,00,10.30
2012,12,03,17,01,6.30
2012,12,03,17,02,10.40
2012,12,03,17,03,3.10
2012,12,03,17,04,4.20
2012,12,03,17,05,8.90
2012,12,03,17,06,11.50
2012,12,03,17,07,7.60
2012,12,03,17,08,7.80
2012,12,03,17,09,12.60
2012,12,03,17,10,6.40
2012,12,03,17,11,9.80
2012,12,03,17,12,4.10
2012,12,03,17,13,10.40
2012,12,03,17,14,7.20
2012,12,03,17,15,5.10
2012,12,03,17,16,5.10
2012,12,03,17,17,7.90
2012,12,03,17,18,12.90
2012,12,03,17,19,9.40
2012,12,03,17,20,5.30
2012,12,03,17,21,10.10
2012,12,03,17,22,6.00
2012,12,03,17,23,9.40
2012,12,03,17,24,10.20
2012,12,03,17,25,8.70
2012,12,03,17,26,7.20
2012,12,03,17,27,10.50
2012,12,03,17,28,5.20
2012,12,03,17,29,4.30
2012,12,03,17,30,6.20
2012,12,03,17,31,11.60
2012,12,03,17,32,4.70
2012,12,03,17,33,4.20
2012,12,03,17,34,8.00
2012,12,03,17,35,9.10
2012,12,03,17,36,8.50
2012,12,03,17,37,11.40
2012,12,03,17,38,8.60
2012,12,03,17,39,5.80
2012,12,03,17,40,7.80
2012,12,03,17,41,7.50
2012,12,03,17,42,5.00
2012,12,03,17,43,6.90
2012,12,03,17,44,3.90
2012,12,03,17,45,5.50
2012,12,03,17,46,5.90
2012,12,03,17,47,5.60
2012,12,03,17,48,4.70
2012,12,03,17,49,9.00
2012,12,03,17,50,8.40
2012,12,03,17,51,5.80
2012,12,03,17,52,4.60
2012,12,03,17,53,9.70
2012,12,03,17,54,4.50
2012,12,03,17,55,3.90
2012,12,03,17,56,12.20
2012,12,03,17,57,7.60
2012,12,03,17,58,7.10
2012,12,03,17,59,6.70
2012,12,03,18,00,7.40
2012,12,03,18,01,7.60
2012,12,03,18,02,8.00
2012,12,03,18,03,9.50
2012,12,03,18,04,6.20
2012,12,03,18,05,4.50